Regional Weather Roundup
Issued by NWS Northern Indiana

Home | Current Version | Previous Version | Graphics & Text | Print | Product List | Glossary On
Versions: 1 2 3 4 5 6 7 8 9 10 11 12 13 14 15 16 17 18 19 20 21 22 23 24 25 26 27 28 29 30 31 32 33 34 35 36 37 38 39 40 41 42 43 44 45 46 47 48 49 50
000
ASUS43 KIWX 101200
RWRIWX

KIWX WEATHER ROUNDUP
NATIONAL WEATHER SERVICE NORTHERN INDIANA
700 AM EST WED FEB 10 2016

NOTE: "FAIR" INDICATES FEW OR NO CLOUDS BELOW 12,000 FEET WITH NO
SIGNIFICANT WEATHER AND/OR OBSTRUCTIONS TO VISIBILITY.

* THESE STATIONS ARE NOT UNDER NWS QUALITY CONTROL. THEY ALSO MAY NOT
  REPORT WEATHER SUCH AS PRECIPITATION OR FOG.

INZ001>027-101300-
NORTHERN INDIANA

CITY           SKY/WX    TMP DP  RH WIND       PRES   REMARKS
GARY*          MOCLDY    14   1  57 W20       29.99R WCI  -3
SOUTH BEND     LGT SNOW  17  14  88 NW12      29.89R FOG     WCI   4
6HR MIN TEMP:  17; 6HR MAX TEMP:  19; 6HR PCP:  0.10;

ELKHART*       LGT SNOW  19  16  86 NW9       29.88  WCI   9
GOSHEN         LGT SNOW  19  14  81 W10       29.86R WCI   7
6HR MIN TEMP:  18; 6HR MAX TEMP:  20; 6HR PCP: TRACE;

MONTICELLO*    MOCLDY    12   2  64 W10       29.97R WCI  -1
6HR MIN TEMP:  12; 6HR MAX TEMP:  15;

ANGOLA*          N/A     18  16  93 NW7       29.82R WCI   8
FORT WAYNE     LGT SNOW  16  10  77 W16       29.88R WCI   1
6HR MIN TEMP:  16; 6HR MAX TEMP:  19; 6HR PCP:  0.01;

PERU/GRISSOM   FLURRIES  14   9  79 W15       29.92R WCI  -1

$$
INZ028>050-101300-
CENTRAL INDIANA

CITY           SKY/WX    TMP DP  RH WIND       PRES   REMARKS
LAFAYETTE      CLOUDY    11   4  73 W12       30.00R WCI  -3
6HR MIN TEMP:  11; 6HR MAX TEMP:  14; 6HR PCP: TRACE;

KOKOMO*        CLOUDY    14   9  79 W18       29.94R WCI  -3
6HR MIN TEMP:  12; 6HR MAX TEMP:  16;

MUNCIE*        CLOUDY    14   7  73 W14G22    29.93R WCI  -1
6HR MIN TEMP:  14; 6HR MAX TEMP:  16; 6HR PCP: TRACE;

INDIANAPOLIS   FLURRIES  12   5  73 W15       29.98R WCI  -4
6HR MIN TEMP:  12; 6HR MAX TEMP:  15; 6HR PCP: TRACE;


$$
MIZ043>046-050>051-056>058-064>065-071>073-077>080-101300-
SOUTHWEST LOWER MICHIGAN

CITY           SKY/WX    TMP DP  RH WIND       PRES   REMARKS
BATTLE CREEK   CLOUDY    18  11  74 NW13      29.82R WCI   5
6HR MIN TEMP:  18; 6HR MAX TEMP:  21; 6HR PCP: TRACE;

BENTON HARBOR  LGT SNOW  20  12  71 NW12G23   29.89R WCI   8
6HR MIN TEMP:  19; 6HR MAX TEMP:  23; 6HR PCP: TRACE;

COLDWATER*     LGT SNOW  18  15  86 W7        29.82R WCI   9
6HR MIN TEMP:  18; 6HR MAX TEMP:  22;

HILLSDALE*     FLURRIES  17  13  83 NW12      29.78R WCI   4
6HR MIN TEMP:  17; 6HR MAX TEMP:  21;

HOLLAND        SNOW      19  16  88 N8        29.86R VSB 1/2 WCI   9
6HR MIN TEMP:  19; 6HR MAX TEMP:  20; 6HR PCP:  0.09;

GRAND RAPIDS   FLURRIES  19  13  77 NW12      29.83R WCI   7
6HR MIN TEMP:  19; 6HR MAX TEMP:  21; 6HR PCP: TRACE;

KALAMAZOO      LGT SNOW  19  13  77 NW14G23   29.83R VSB 1   WCI   6
6HR MIN TEMP:  19; 6HR MAX TEMP:  21; 6HR PCP: TRACE;

STURGIS*       LGT SNOW  18  15  90 CALM      29.83R
6HR MIN TEMP:  18; 6HR MAX TEMP:  21;

THREE RIVERS*  LGT SNOW  20  17  88 NW8       29.85R WCI  10
6HR MIN TEMP:  19; 6HR MAX TEMP:  22;


$$
OHZ001>008-015>018-024>025-101300-
NORTHWEST OHIO

CITY           SKY/WX    TMP DP  RH WIND       PRES   REMARKS
DEFIANCE       LGT SNOW  20  15  81 W9        29.85R WCI   9
6HR MIN TEMP:  20; 6HR MAX TEMP:  22; 6HR PCP: TRACE;

FINDLAY        FLURRIES  19  13  77 W17       29.82R WCI   4
6HR MIN TEMP:  18; 6HR MAX TEMP:  21; 6HR PCP: TRACE;

TOLEDO EXPRESS CLOUDY    20  13  74 W13G21    29.80R WCI   7
6HR MIN TEMP:  20; 6HR MAX TEMP:  23; 6HR PCP: TRACE;

TOLEDO METCALF CLOUDY    22  15  75 W17       29.80R WCI   8
6HR MIN TEMP:  22; 6HR MAX TEMP:  24;

LIMA           LGT SNOW  16  12  84 W16       29.84R FOG     WCI   1
6HR MIN TEMP:  16; 6HR MAX TEMP:  18; 6HR PCP: TRACE;


$$
AND FOR LAKE MICHIGAN COASTAL AND OPEN LAKE BUOY OBSERVATIONS

STATION/POSITION TEMP    WIND        PRES    VSBY  WAVE
                 AIR SEA DIR/SP/G                  HT/PER
                 (F)     (DEG/KT/KT) (MB)    (MI)  (FT/S)
CALUMET HARBOR    11     290/  9/ 13 1014.5R
MICHIGAN CITY     19     290/ 23/ 26   N/A
BURNS HARBOR      17     300/ 22     1014.2R
SAINT JOSEPH      22     300/ 20/ 25 1012.9S

$$
&&



USA.gov is the U.S. government's official web portal to all federal, state and local government web resources and services.